Location: Shannon
(40.5500°S, 175.4167°E)
Time: 21:35:27
(UTC+00:00)

Cosmos 2227 Rocket - Pass Details

Date: 17 November 2025
Orbit: 839 x 842 km, 71.0° (Epoch: 14 December)

Event Time Altitude Azimuth Distance (km) Brightness Sun altitude
Exits shadow 15:05:03 13° 267° (W) 2,243 4.0 -16.9°
Maximum altitude 15:08:00 19° 231° (SW) 1,920 4.0 -16.5°
Drops below altitude 10° 15:12:00 10° 186° (S) 2,494 5.2 -16.0°
Sets 15:15:14 0° 168° (SSE) 3,436 6.3 -15.5°
